North Pole, Alaska, United States (99705)
Lat: 64.75N, Lon: 147.35W
Wx Zone: AKZ222
Local Info
Past Weather Observations for Sunday, October 19, 2014

NOTE: This archive is for the closest National Weather Service station to North Pole. Information may differ from the station used for current weather conditions.

Click here for Long-term Archive

Time Weather Temperature Dewpoint Humidity Pressure Winds Precip Visibility
23:56
Overcast
34°F / 1°C 21°F / -6°C 60% 29.21 in
(989 mb)
ENE 4.6 mph
(ENE 7 kph)
- 10SM
22:56
Overcast
32°F / 0°C 23°F / -5°C 69% 29.21 in
(989 mb)
NE 3.5 mph
(NE 6 kph)
- 10SM
21:56
Overcast
32°F / 0°C 23°F / -5°C 69% 29.21 in
(989 mb)
Calm - 10SM
20:56
Overcast
30°F / -1°C 25°F / -4°C 80% 29.21 in
(989 mb)
Calm - 10SM
19:56
Overcast
30°F / -1°C 25°F / -4°C 80% 29.24 in
(990 mb)
Calm - 10SM
18:56
Overcast
30°F / -1°C 25°F / -4°C 80% 29.24 in
(990 mb)
Calm - 10SM
17:56
Overcast
32°F / 0°C 25°F / -4°C 75% 29.27 in
(991 mb)
Calm - 10SM
16:56
Overcast
34°F / 1°C 21°F / -6°C 60% 29.27 in
(991 mb)
Calm - 10SM
15:56
Overcast
36°F / 2°C 23°F / -5°C 60% 29.3 in
(992 mb)
Calm - 10SM
14:56
Overcast
34°F / 1°C 21°F / -6°C 60% 29.3 in
(992 mb)
Calm - 10SM
13:56
Overcast
34°F / 1°C 21°F / -6°C 60% 29.33 in
(993 mb)
Calm - 10SM
12:56
Overcast
34°F / 1°C 21°F / -6°C 60% 29.33 in
(993 mb)
Calm - 10SM
11:56
Overcast
32°F / 0°C 21°F / -6°C 64% 29.33 in
(993 mb)
Calm - 10SM
10:56
Overcast
30°F / -1°C 21°F / -6°C 69% 29.36 in
(994 mb)
Calm - 10SM
09:56
Overcast
28°F / -2°C 21°F / -6°C 74% 29.36 in
(994 mb)
Calm - 10SM
08:56
Overcast
27°F / -3°C 21°F / -6°C 80% 29.39 in
(995 mb)
Calm - 10SM
07:56
Overcast
28°F / -2°C 19°F / -7°C 69% 29.39 in
(995 mb)
Calm - 10SM
06:56
Overcast
27°F / -3°C 21°F / -6°C 80% 29.39 in
(995 mb)
Calm - 10SM
05:56
Overcast
27°F / -3°C 21°F / -6°C 80% 29.39 in
(995 mb)
Calm - 10SM
04:56
Overcast
27°F / -3°C 21°F / -6°C 80% 29.39 in
(995 mb)
Calm - 10SM
03:56
Overcast
27°F / -3°C 21°F / -6°C 80% 29.39 in
(995 mb)
Calm - 10SM
02:56
Overcast
27°F / -3°C 19°F / -7°C 74% 29.42 in
(996 mb)
Calm - 10SM
01:56
Overcast
27°F / -3°C 19°F / -7°C 74% 29.42 in
(996 mb)
NE 4.6 mph
(NE 7 kph)
- 10SM
00:56
Overcast
23°F / -5°C 19°F / -7°C 86% 29.42 in
(996 mb)
Calm - 10SM
Time Weather Temperature Dewpoint Humidity Pressure Winds Precip Visibility


Weather for websites

WeatherForYou.com, LLC is not responsible for any damages or problems caused by this service. Current weather conditions are obtained from the closest station including government and personal stations which may have varying degrees of accuracy. Weather forecasts are derived from the NOAA NDFD. Like all things, this site belongs to Jesus Christ... He just trusts me to maintain it. If you have any questions or comments email webmaster@weatherforyou.com

Copyright © 2014, WeatherForYou.com LLC. All rights reserved.